User: anonymous   Login
Location: Dentlein
(49.1477°N, 10.4231°E)
Time: 20:26:18
(UTC+00:00)
Language:

Cosmos 1025 Rocket - Orbit

View from above orbital plane
View from above orbital plane
View from above satellite
View from above satellite

Ground track
Ground track

The orbit data is extracted from the following two-line orbital elements,

1 10974U 78067B   24199.55925853  .00001136  00000-0  11866-3 0  9992
2 10974  82.4799 237.5031 0018000  49.1586 311.1189 14.88714520492206
Epoch (UTC): 17 July 2024 13:25:19
Eccentricity: 0.0018000
inclination: 82.4799°
perigee height: 589 km
apogee height: 614 km
right ascension of ascending node: 237.5031°
argument of perigee: 49.1586°
revolutions per day: 14.88714520
mean anomaly at epoch: 311.1189°
orbit number at epoch: 49220

The dashed part of the orbit path shows where the satellite is in the earth's shadow,  

DLR